Wind_Speed
46 46 45 46 47 47 48 49 49 50 49 45 39 40 38 36 37 36 35 34 33 34 35 36 35 33 31 30 30 30 29 27 28 30 30 29 29 29
49 48 38 44 45 40 41 46 51 53 56 50 49 43 43 44 41 39 39 38 38 38 38 38 39 39 38 36 34 33 32 31 30 32 32 33 32 32
49 51 49 45 51 46 42 45 48 53 58 57 55 52 50 50 50 47 42 42 41 40 40 41 41 42 41 40 39 37 36 35 35 34 35 36 35 35
37 54 72 68 65 56 50 49 51 47 61 60 55 57 57 53 51 55 51 49 47 45 44 43 44 44 44 44 44 42 40 40 39 38 37 38 38 37
43 46 45 55 47 50 56 63 55 60 59 50 53 58 59 57 55 56 56 55 54 49 46 46 47 46 46 46 47 47 45 44 44 42 41 40 41 40
45 45 44 43 46 50 55 56 62 49 65 43 64 71 57 53 55 56 55 55 58 57 52 50 50 49 49 50 49 50 50 47 46 46 46 45 43 43
51 49 50 47 50 47 48 48 51 55 67 57 71 56 45 48 48 49 53 53 62 65 62 59 54 53 51 50 51 51 50 50 49 49 49 49 48 46
54 55 55 55 53 51 50 49 50 53 50 59 62 57 59 48 39 47 37 46 52 57 61 54 55 55 54 52 49 50 49 50 51 52 51 52 51 51
51 57 58 59 59 58 57 55 54 51 52 52 52 48 48 45 44 47 39 37 43 48 57 62 58 51 45 49 49 51 52 52 52 53 52 52 53 53
35 42 56 60 61 62 62 59 58 57 54 53 56 56 47 45 43 45 44 47 57 48 49 57 55 56 49 47 47 50 52 53 53 54 55 53 52 53
29 30 36 45 58 63 64 64 63 62 63 61 60 60 59 54 49 46 48 41 45 45 53 60 51 55 54 49 46 47 50 53 53 53 55 55 53 53
30 29 28 31 39 49 58 63 65 65 63 64 58 61 52 53 52 53 54 54 51 50 46 46 49 44 52 57 55 51 52 53 54 51 50 53 55 57
34 32 33 30 27 38 47 49 55 62 64 65 64 63 54 60 57 55 53 57 57 55 51 52 51 51 50 50 52 53 52 55 56 54 50 50 55 62
38 36 36 35 32 29 33 46 49 49 56 54 59 63 62 64 63 60 62 61 61 62 57 59 58 55 51 52 54 52 56 56 57 56 59 61 70 70
42 40 37 37 37 35 32 30 39 49 48 55 60 51 61 62 64 64 63 61 60 65 66 62 62 60 55 51 51 53 56 64 63 66 68 68 67 69
44 43 40 38 36 36 36 34 34 32 42 50 51 56 59 58 58 65 65 68 66 66 66 67 65 62 59 52 50 52 53 51 54 61 63 63 65 70
42 43 41 40 38 34 33 34 34 34 34 32 40 48 57 62 67 59 58 57 63 68 68 67 65 65 61 54 53 54 51 54 53 46 51 62 67 61
39 40 40 39 39 37 34 32 32 32 34 35 33 32 40 46 54 61 63 64 64 63 65 70 64 68 62 57 56 54 54 51 48 41 41 51 60 61
37 37 37 36 36 36 36 34 32 32 33 33 35 35 32 35 41 47 53 61 63 63 60 64 69 58 56 60 55 54 51 50 45 43 43 49 49 47
36 35 34 34 33 33 34 35 34 33 33 33 33 33 33 33 33 37 34 45 53 59 64 63 65 59 58 65 61 55 53 49 48 45 47 44 42 40
36 35 34 34 32 32 32 33 34 33 33 34 34 33 33 32 30 31 34 33 30 32 47 46 43 62 58 60 62 54 52 53 51 47 44 43 46 47
36 36 35 34 34 33 33 33 34 35 34 35 35 35 34 34 32 30 30 33 30 31 32 32 48 50 55 54 58 63 56 53 57 59 58 54 50 53
34 35 36 36 35 34 34 35 35 35 35 36 36 36 35 35 35 33 31 30 29 30 29 28 28 31 44 58 55 61 65 69 62 64 55 54 51 55
Wind_Direction
242 244 247 248 251 255 258 259 260 262 260 260 259 263 259 255 257 260 259 258 259 263 267 271 275 276 277 279 281 284 286 289 293 295 296 299 301 309
244 245 244 244 246 250 257 261 260 260 263 259 258 258 263 259 253 251 256 258 258 259 263 267 271 274 276 277 277 280 283 286 288 290 292 294 297 300
256 244 245 251 252 250 250 253 258 262 261 260 261 260 256 258 263 258 251 252 255 256 258 261 265 268 271 274 276 277 278 282 284 285 288 290 292 295
250 252 247 255 254 252 254 255 255 261 262 260 259 261 261 259 261 266 264 260 253 252 253 256 260 262 267 270 272 275 277 278 280 282 284 286 288 290
259 269 265 269 250 263 262 258 264 259 267 262 262 259 259 261 261 263 264 264 261 259 257 255 255 257 259 264 268 271 272 275 277 279 282 282 284 285
249 251 256 258 265 259 244 251 254 267 259 253 256 246 261 257 257 260 260 263 264 265 262 259 258 257 258 259 261 265 269 271 273 276 277 278 279 280
254 250 250 249 251 257 260 267 262 269 269 264 263 274 247 253 252 253 259 260 258 260 262 263 263 261 260 261 263 264 266 269 270 270 272 274 275 275
253 252 252 252 247 249 256 254 259 265 268 280 283 284 273 263 262 255 262 254 268 270 279 274 266 264 262 262 264 265 264 264 266 266 266 268 270 272
260 255 254 253 252 251 247 248 253 251 258 268 272 279 288 290 289 273 269 266 271 264 268 269 267 270 267 264 263 264 265 265 264 264 264 264 266 268
281 269 259 257 256 253 251 250 249 252 254 257 262 261 267 267 269 279 280 275 281 278 264 271 268 267 267 268 267 263 264 265 264 264 262 262 262 264
296 292 278 266 261 260 255 252 250 250 250 252 255 258 257 261 255 256 261 264 271 272 269 274 273 267 267 264 269 270 264 263 263 265 266 265 263 262
291 293 292 285 273 268 264 259 255 252 252 252 251 256 253 255 253 254 254 257 267 269 267 262 268 273 268 263 264 266 265 263 260 261 265 270 268 263
297 294 290 286 289 274 273 269 264 258 256 254 253 249 252 258 251 253 250 254 257 262 266 270 267 272 274 270 260 257 259 258 253 257 262 270 278 275
294 295 295 294 293 281 280 273 270 267 263 260 259 253 254 252 252 250 252 252 251 253 255 258 264 267 270 271 271 267 260 261 261 260 266 259 260 268
288 289 292 292 292 293 285 283 278 272 269 263 260 261 257 253 255 257 253 254 254 248 250 255 259 264 264 268 273 277 269 259 259 263 268 269 268 264
283 284 286 287 285 285 286 285 280 283 275 272 268 266 263 261 260 256 254 255 255 252 253 258 258 258 262 262 265 269 273 271 267 267 268 265 261 261
283 281 281 283 283 280 280 282 284 283 282 285 277 271 265 260 257 258 259 256 258 254 255 255 258 256 258 258 262 266 268 269 273 275 270 264 261 266
284 283 281 280 281 281 278 275 276 281 281 283 282 288 270 264 262 259 257 259 261 255 254 256 262 263 259 254 254 258 264 266 273 276 272 266 262 263
286 284 283 282 280 281 281 279 274 275 278 282 282 279 288 283 266 259 259 259 257 256 258 253 252 252 250 251 251 256 258 265 272 267 271 271 268 268
288 286 283 283 282 281 281 282 280 277 275 278 281 282 284 283 288 279 270 255 256 258 262 258 252 252 252 251 260 255 255 258 260 261 268 273 269 270
288 285 284 283 283 282 282 282 284 283 280 277 277 279 282 284 282 290 294 282 263 267 264 258 258 243 254 253 254 263 251 256 261 259 261 264 269 275
286 285 283 282 282 282 282 282 283 284 284 281 279 277 277 279 281 282 279 289 294 284 276 274 265 258 248 256 252 257 257 256 258 257 264 260 262 266
284 282 281 282 283 284 284 284 283 283 284 284 281 279 277 276 278 280 282 284 282 288 285 280 275 272 262 253 260 258 260 261 261 262 262 259 256 262
Height
3132 3136 3142 3146 3148 3150 3151 3155 3158 3157 3158 3163 3166 3166 3168 3170 3172 3173 3175 3177 3178 3179 3179 3179 3180 3181 3181 3181 3181 3181 3180 3180 3179 3178 3177 3175 3173 3171
3120 3126 3130 3135 3137 3139 3141 3143 3145 3148 3146 3153 3155 3158 3157 3158 3160 3163 3165 3167 3170 3170 3171 3172 3172 3173 3173 3174 3174 3174 3174 3174 3173 3172 3172 3170 3169 3167
3106 3111 3118 3123 3126 3127 3130 3133 3134 3136 3135 3142 3143 3147 3149 3148 3148 3149 3154 3156 3159 3161 3161 3162 3163 3164 3165 3166 3166 3167 3167 3167 3166 3166 3165 3164 3163 3161
3094 3094 3103 3110 3112 3116 3120 3121 3123 3125 3125 3127 3130 3133 3133 3138 3139 3136 3140 3142 3146 3149 3151 3152 3153 3153 3155 3156 3156 3157 3159 3159 3159 3158 3158 3157 3156 3154
3086 3084 3090 3087 3090 3100 3101 3106 3106 3107 3111 3113 3119 3120 3121 3123 3125 3126 3126 3128 3130 3136 3139 3141 3142 3143 3143 3145 3146 3147 3148 3149 3150 3149 3149 3149 3148 3148
3077 3079 3080 3080 3080 3082 3078 3089 3091 3092 3100 3099 3101 3106 3110 3110 3111 3113 3115 3116 3117 3120 3123 3127 3128 3130 3131 3132 3134 3135 3136 3138 3139 3139 3139 3139 3139 3138
3067 3068 3070 3071 3073 3072 3073 3074 3079 3081 3082 3081 3077 3076 3088 3093 3097 3103 3100 3105 3105 3104 3108 3111 3116 3117 3119 3120 3121 3123 3125 3127 3128 3128 3127 3128 3128 3128
3054 3056 3057 3058 3059 3061 3064 3066 3066 3067 3066 3067 3070 3071 3075 3079 3082 3090 3087 3090 3090 3096 3093 3096 3097 3100 3106 3107 3110 3111 3112 3112 3113 3114 3115 3115 3115 3116
3040 3042 3043 3043 3043 3046 3049 3051 3054 3057 3057 3055 3053 3056 3060 3066 3070 3071 3072 3075 3077 3083 3074 3076 3083 3086 3092 3092 3096 3098 3099 3099 3099 3099 3100 3101 3102 3103
3028 3027 3028 3028 3028 3030 3032 3035 3040 3043 3044 3044 3044 3045 3049 3055 3058 3058 3058 3059 3058 3064 3066 3060 3072 3069 3076 3078 3080 3083 3085 3086 3085 3084 3084 3085 3087 3089
3021 3018 3016 3015 3014 3014 3016 3019 3023 3026 3027 3030 3031 3034 3037 3041 3046 3045 3043 3044 3041 3047 3054 3051 3055 3055 3059 3061 3065 3066 3068 3071 3072 3071 3071 3071 3073 3074
3014 3010 3008 3005 3003 3000 2997 3001 3005 3008 3011 3013 3017 3018 3023 3024 3030 3032 3031 3028 3027 3026 3032 3035 3040 3041 3037 3042 3047 3050 3050 3054 3057 3057 3057 3058 3059 3058
3005 3002 3000 2997 2995 2992 2986 2985 2986 2990 2994 2996 3000 3004 3005 3009 3011 3016 3016 3016 3014 3011 3016 3019 3019 3020 3021 3021 3026 3029 3032 3036 3037 3039 3041 3042 3044 3045
2996 2993 2990 2987 2985 2983 2980 2974 2973 2973 2976 2980 2982 2986 2988 2991 2992 2995 2998 2999 3000 2999 3005 3004 3001 3004 3006 3006 3006 3013 3014 3017 3021 3023 3022 3023 3025 3027
2985 2983 2981 2977 2974 2972 2970 2967 2963 2960 2961 2965 2966 2967 2970 2972 2975 2977 2978 2982 2983 2984 2986 2987 2989 2989 2990 2988 2989 2991 2995 2998 3001 3003 3005 3006 3008 3007
2973 2971 2970 2968 2965 2962 2960 2957 2954 2951 2948 2946 2948 2951 2953 2955 2957 2959 2961 2964 2964 2966 2969 2971 2972 2975 2973 2974 2976 2975 2973 2977 2982 2983 2986 2985 2984 2985
2960 2958 2957 2954 2952 2951 2949 2947 2943 2940 2938 2937 2936 2934 2935 2936 2939 2941 2943 2945 2946 2948 2950 2955 2957 2959 2959 2958 2958 2958 2958 2960 2965 2964 2961 2962 2964 2967
2947 2945 2943 2941 2939 2937 2937 2936 2934 2931 2928 2926 2924 2922 2921 2920 2921 2923 2924 2926 2928 2930 2933 2936 2940 2940 2941 2940 2942 2942 2943 2944 2947 2947 2945 2944 2945 2951
2934 2932 2930 2929 2927 2925 2923 2923 2922 2921 2917 2915 2913 2911 2909 2907 2906 2906 2906 2907 2910 2913 2916 2919 2922 2920 2920 2920 2926 2928 2929 2929 2930 2931 2933 2930 2929 2932
2923 2921 2919 2917 2916 2914 2911 2910 2909 2908 2907 2904 2903 2900 2898 2896 2894 2893 2892 2891 2893 2896 2896 2899 2901 2900 2901 2907 2907 2911 2911 2913 2914 2917 2918 2918 2916 2916
2912 2910 2909 2907 2905 2903 2901 2899 2897 2895 2894 2893 2892 2890 2888 2886 2884 2883 2882 2880 2879 2881 2881 2883 2882 2880 2885 2889 2892 2893 2898 2898 2899 2902 2904 2904 2904 2904
2900 2898 2897 2896 2894 2892 2891 2889 2887 2885 2883 2881 2880 2879 2878 2876 2875 2874 2873 2873 2871 2870 2870 2868 2866 2866 2868 2872 2876 2878 2882 2882 2885 2885 2887 2889 2890 2889
2890 2888 2885 2883 2882 2881 2879 2877 2875 2874 2872 2870 2868 2867 2867 2866 2865 2864 2863 2862 2861 2861 2860 2858 2856 2855 2855 2857 2858 2861 2863 2866 2870 2870 2869 2871 2872 2875